Other Public Products
Issued by NWS Grand Forks, ND

Home | Current Version | Previous Version | Text Only | Print | Product List | Glossary On
Versions: 1 2 3 4 5 6 7 8 9 10 11 12 13 14 15 16 17 18 19 20 21 22 23 24 25 26 27 28 29 30 31 32 33 34 35 36 37 38 39 40 41 42 43 44 45 46 47 48 49 50
000
FPUS83 KFGF 262110
OPUFGF
PRAIRIE TO PINES WEATHER ROUNDUP
NATIONAL WEATHER SERVICE EASTERN NORTH DAKOTA/GRAND FORKS ND
400 PM CDT THU MAY 26 2016

 **SATELLITE DATA USED TO AUGMENT SKY COVER AT AUTOMATED STATIONS**
 *****  WEATHER ACROSS EASTERN NORTH DAKOTA  *****

CITY           SKY/WX    TMP DP  RH WIND       PRES   REMARKS
GRAND FORKS    PTSUNNY   69  57  65 W10       29.74S
GRAND FORKS AF MOSUNNY   70  57  62 W14       29.74F
GRAND CITY NWS   N/A     72 N/A N/A SW15        N/A
BUXTON           N/A     73  59  61 W14         N/A
DEVILS LAKE    CLOUDY    63  54  72 NW10      29.79R
FARGO          MOSUNNY   74  55  51 W10G18    29.77F
WAHPETON ARPT  CLEAR     75  43  31 W16G25    29.79F
$$

 *****  WEATHER ACROSS CENTRAL AND WESTERN NORTH DAKOTA  *****

CITY           SKY/WX    TMP DP  RH WIND       PRES   REMARKS
JAMESTOWN      MOSUNNY   73  51  46 W17       29.77F
BISMARCK       CLOUDY    73  44  35 W12       29.77F
MINOT          PTSUNNY   70  53  54 VRB5      29.78F
MINOT AFB      MOSUNNY   64  54  68 VRB6      29.78F
GARRISON         N/A     55  49  80 SW25      29.81R
WILLISTON      LGT RAIN  61  51  70 SW8       29.79S
DICKINSON      PTSUNNY   63  38  39 W10       29.80F
HETTINGER      CLOUDY    65  41  41 W16G23    29.83F
$$

 *****  OTHER OBSERVATIONS NORTHEAST NORTH DAKOTA  *****

CITY           SKY/WX    TMP DP  RH WIND       PRES   REMARKS
WALHALLA       FAIR      63  63 100 W6        29.73S
LANGDON        CLOUDY    59  59 100 NW12      29.77R FOG
CAVALIER       MOCLDY    66  55  68 W16G22    29.72S
GRAFTON        FAIR      68  57  68 W16       29.75S
CANDO          MOCLDY    61  52  72 N10       29.81R
FORT TOTTEN    NOT AVBL
ROLLA          MOCLDY    61  50  67 N16G22    29.80R
RUGBY          RAIN      59  55  88 NW9       29.80R
 ***** THE ABOVE OBSERVATIONS ARE NON NWS ARE NOT QUALITY
        CONTROLLED AND MAY MIS-REPORT RAIN FOR SNOW...
$$

 *****  OTHER OBSERVATIONS SOUTHEAST NORTH DAKOTA *****

CITY           SKY/WX    TMP DP  RH WIND       PRES   REMARKS
COOPERSTOWN    NOT AVBL
VALLEY CITY    FAIR      72  54  53 W15G21    29.80F
OAKES            N/A    N/A N/A N/A MISG        N/A
GWINNER        FAIR      75  52  43 SW14G20   29.79F
SHEYENNE NWR     N/A     78  50  37 W14       29.95S
BUFFALO          N/A     72  46  39 W18         N/A
WYNDMERE       NOT AVBL
 ***** THE ABOVE OBSERVATIONS ARE NON NWS ARE NOT QUALITY
       CONTROLLED AND MAY MIS-REPORT RAIN FOR SNOW...
$$

  *****  WEATHER ACROSS NORTHERN MINNESOTA  *****

CITY           SKY/WX    TMP DP  RH WIND       PRES   REMARKS
FLAG ISLAND    PTSUNNY   66  54  63 SW14      29.70S
WARROAD        PTSUNNY   70  57  64 SW15G22   29.72S
ROSEAU         MOSUNNY   70  57  64 W16G23    29.72R
HALLOCK        CLOUDY    66  57  72 W15       29.71S
THF RVR FALLS  PTSUNNY   68  54  60 W18       29.77S
HALSTAD        NOT AVBL
FOSSTON        SUNNY     68  55  64 SW16G23   29.78S
BAUDETTE       PTSUNNY   72  55  55 W15G21    29.72S
WASKISH        MOSUNNY   68  57  68 W9        29.75S
CROOKSTON      MOSUNNY   70  57  64 W15       29.76F
$$
  *****  WEATHER ACROSS CENTRAL AND WEST MINNESOTA  *****

CITY           SKY/WX    TMP DP  RH WIND       PRES   REMARKS
BEMIDJI        PTSUNNY   73  53  49 W14       29.77S
PARK RAPIDS    MOSUNNY   75  52  44 W16       29.79S
WADENA         SUNNY     73  48  40 W14G24    29.80F
DETROIT LAKES  CLOUDY    70  52  52 W10G17    29.82S
MOORHEAD       MOSUNNY   72  57  60 W10       29.79S
FERGUS FALLS   CLOUDY    75  48  38 W15G24    29.76F
ELBOW LAKE     FAIR      76  48  37 NW15      29.81F
MORRIS MN      CLOUDY    79  46  31 W17G24    29.79F
STAPLES        SUNNY     73  46  38 W14       29.80F
WHEATON        PTSUNNY   79  50  36 W10G20    29.80F
$$
  *****  WEATHER ELSEWHERE ACROSS MINNESOTA  *****

CITY           SKY/WX    TMP DP  RH WIND       PRES   REMARKS
DULUTH         MOSUNNY   69  57  65 SE5       29.79F
INTRNTL FALLS  SUNNY     75  51  43 W6G16     29.73S
ELY            PTSUNNY   72  54  53 SW6       29.77S
CLOQUET        SUNNY     72  57  60 SE5       29.78F
BRAINERD       SUNNY     76  47  35 W16G24    29.79F
HIBBING        MOSUNNY   70  57  63 CALM      29.78S
ALEXANDRIA     MOSUNNY   75  43  31 W14G23    29.82F
SAINT CLOUD    CLOUDY    80  47  31 W18       29.79F
MINNEAPOLIS    MOSUNNY   80  50  34 W15G22    29.81S
$$

  *****  WEATHER ACROSS SOUTH DAKOTA  *****

CITY           SKY/WX    TMP DP  RH WIND       PRES   REMARKS
SIOUX FALLS    CLOUDY    75  54  47 SE3       29.82F
BROOKINGS      PTSUNNY   74  49  41 W5        29.84F
WATERTOWN      CLOUDY    74  50  42 NW7       29.84F
HURON          SUNNY     76  52  43 SE6       29.81F
SISSETON         N/A     77  49  37 W14G25    29.79F
ABERDEEN       MOSUNNY   77  51  40 SW13G21   29.80F
MITCHELL       CLOUDY    74  53  48 E3        29.82F
PIERRE         PTSUNNY   75  54  47 S3        29.78F
MOBRIDGE       SUNNY     75  53  46 S14G20    29.77F
RAPID CITY     CLOUDY    65  46  50 N16       29.86F
$$

  *****  SOME WEATHER IN NEARBY STATES *****

CITY           SKY/WX    TMP DP  RH WIND       PRES   REMARKS
GLASGOW MT     LGT RAIN  55  53  93 NW17      29.82F FOG
GREAT FALLS MT PTSUNNY   64  46  52 SW7       29.92F
CHEYENNE WY    LGT RAIN  50  38  63 N8        30.00R
SCOTTSBLUFF NE CLOUDY    65  40  39 W13       29.89S
OMAHA NE       CLOUDY    77  63  61 N10       29.73F THUNDER
DES MOINES IA  CLOUDY    79  66  64 E7        29.79F
DAVENPORT IA   CLOUDY    84  65  52 SW8       29.83F
CHICAGO IL     PTSUNNY   82  64  54 SW13G18   29.84F
EAU CLAIRE WI  MOSUNNY   80  57  45 SW13      29.80F
LA CROSSE WI   SUNNY     83  58  42 W13       29.82F
$$

  *****  SOME NATIONAL WEATHER *****

CITY           SKY/WX    TMP DP  RH WIND       PRES   REMARKS
LA GUARDIA NY  PTSUNNY   88  55  32 S17       30.03S
RALEIGH NC     MOSUNNY   88  62  41 W10       30.10F
ATLANTA GA     PTSUNNY   87  61  41 SW5       30.09F
NEW ORLEANS LA PTSUNNY   88  68  51 S17       30.03F HX  91
OKLAHOMA CITY  CLOUDY    83  69  62 S23G32    29.75F
ALBUQUERQUE NM PTSUNNY   71  13  10 W13G22    29.87F
SALT LAKE CITY MOSUNNY   69  33  26 NW13      29.96S
LOS ANGELES CA MOSUNNY   68  52  56 W14       30.03F
BOISE ID       MOSUNNY   74  32  21 W17       29.97F
SEATTLE WA     CLOUDY    58  43  57 SW10      30.19F
$$

*** WEATHER ACROSS MANITOBA...SASKATCHEWAN AND ONTARIO ***
                ***ONTARIO***

CITY           SKY/WX    TMP DP  RH WIND       PRES   REMARKS
GERALDTON      CLOUDY    63  50  63 SE9G17    29.81F
THUNDER BAY    CLOUDY    57  54  88 SE7       29.81F
SIOUX LOOKOUT  CLOUDY    64  57  77 SW7       29.75F
TORONTO        PTSUNNY   75  64  69 CALM      29.94F
BIG TROUT LK   SUNNY     72  46  40 SE7       29.78F
PICKLE LAKE    LGT RAIN  66  50  55 E12G18    29.76S
DRYDEN         MOSUNNY   66  54  63 S7        29.75F
KENORA         NOT AVBL
$$
                *** MANITOBA***

CITY           SKY/WX    TMP DP  RH WIND       PRES   REMARKS
BRANDON        LGT RAIN  59  55  88 NW15      29.78S
DAUPHIN        MOSUNNY   70  52  52 NE8       29.74F
ISLAND LAKE    PTSUNNY   64  54  68 SE14      29.75F THUNDER
PILOT MOUND      N/A     57  52  82 N14G21      N/A
THE PAS        CLOUDY    75  43  31 N6        29.80S
THOMPSON       PTSUNNY   57  43  58 N13G24    29.91R
WINNIPEG       DRIZZLE   64  59  82 W13       29.66R
LYNN LAKE      MOSUNNY   54  36  50 NE16      29.99S
CHURCHILL      LGT SNOW  32  32 100 NE23      30.08R FOG     WCI  19
GILLAM         PTSUNNY   54  43  66 N22       29.91R
$$
                ***SASKATCHEWAN***

CITY           SKY/WX    TMP DP  RH WIND       PRES   REMARKS
ESTEVAN        LGT RAIN  57  54  88 NE15G22   29.83S FOG
KINDERSLEY     PTSUNNY   68  45  42 S12       29.87F
LLOYDMINSTER   PTSUNNY   72  39  30 E6G17     29.84F
PRINCE ALBERT  CLOUDY    73  43  33 SE2       29.83S
REGINA         LGT RAIN  59  54  82 E2        29.89R
YORKTON        PTSUNNY   70  50  49 NW9       29.79F   C1F1C2F2C3F3C4F4C5F5C6F6C7F7C8F8C9F9CaFaCbFbCcFcCdFdCe!


USA.gov is the U.S. government's official web portal to all federal, state and local government web resources and services.